User: anonymous   Login
Location: Albany
(35.0000°S, 118.0000°E)
Time: 02:33:29
(UTC-04:00)
Language:

Cosmos 1933 - Orbit

View from above orbital plane
View from above orbital plane
View from above satellite
View from above satellite

Ground track
Ground track

The orbit data is extracted from the following two-line orbital elements,

1 18958U 88020A   15114.17248286  .00002612  00000-0  19694-3 0  9992
2 18958 082.5286 140.7821 0013630 074.4685 285.8044 15.02009463473638
Epoch (UTC): 24 April 2015 04:08:22
Eccentricity: 0.0013630
inclination: 82.5286°
perigee height: 551 km
apogee height: 570 km
right ascension of ascending node: 140.7821°
argument of perigee: 74.4685°
revolutions per day: 15.02009463
mean anomaly at epoch: 285.8044°
orbit number at epoch: 47363

The dashed part of the orbit path shows where the satellite is in the earth's shadow,  

DLR